Regional Weather Roundup
Issued by NWS Green Bay, WI

Home | Current Version | Previous Version | Text Only | Print | Product List | Glossary On
Versions: 1 2 3 4 5 6 7 8 9 10 11 12 13 14 15 16 17 18 19 20 21 22 23 24 25 26 27 28 29 30 31 32 33 34 35 36 37 38 39 40 41 42 43 44 45 46 47 48 49 50
000
ASUS43 KGRB 281759
RWRGRB

NORTH-CENTRAL AND NORTHEAST WISCONSIN REGIONAL WEATHER ROUNDUP
NATIONAL WEATHER SERVICE GREEN BAY WI
1200 PM CST SAT FEB 28 2015

WIZ005-009-010>012-018-019-281900-
NORTH CENTRAL WISCONSIN

CITY           SKY/WX    TMP DP  RH WIND       PRES   REMARKS
IRONWOOD       MOSUNNY   18   0  45 SW14G20   30.40F WCI   4
MANITOWISH WTR NOT AVBL
ARBOR VITAE    NOT AVBL
EAGLE RIVER    NOT AVBL
LAND O LAKES   NOT AVBL
RHINELANDER    SUNNY     14  -2  49 SW10      30.46F WCI   1
PHILLIPS       SUNNY     13  -3  48 S12       30.46F WCI  -1
ANTIGO         NOT AVBL
TOMAHAWK       NOT AVBL
MERRILL        NOT AVBL
$$

WIZ013-073-281900-
NORTHEAST WISCONSIN

CITY           SKY/WX    TMP DP  RH WIND       PRES   REMARKS
IRON MOUNTAIN  SUNNY     20   1  43 S13       30.47F WCI   7
MARINETTE      SUNNY     16   1  53 SW8       30.59F WCI   5
$$

WIZ017-030-035>037-045-281900-
CENTRAL WISCONSIN

CITY           SKY/WX    TMP DP  RH WIND       PRES   REMARKS
MEDFORD        NOT AVBL
WAUSAU         SUNNY     12   0  58 S6        30.51F WCI   3
MOSINEE        NOT AVBL
MARSHFIELD     SUNNY     13  -2  51 S8        30.53F WCI   2
WISC RAPIDS    SUNNY     13  -6  42 SW9       30.58F WCI   1
STEVENS POINT  NOT AVBL
WAUPACA        NOT AVBL
SHAWANO        NOT AVBL
CLINTONVILLE   SUNNY     18   0  45 SW6       30.59F WCI   9
$$

WIZ038-039-048-051-281900-
FOX VALLEY

CITY           SKY/WX    TMP DP  RH WIND       PRES   REMARKS
NWS GREEN BAY  SUNNY     15   1  53 SW9       30.62F WCI   3
APPLETON       MOSUNNY   16   0  48 SW8       30.61F WCI   5
OSHKOSH        SUNNY     14   0  53 S12       30.62F WCI   0
FOND DU LAC    SUNNY     15  -2  46 SW9       30.63F WCI   3
$$

WIZ022-050-052-281900-
EAST CENTRAL WISCONSIN

CITY           SKY/WX    TMP DP  RH WIND       PRES   REMARKS
STURGEON BAY   SUNNY     16   1  53 SW9       30.63F WCI   4
MANITOWOC      NOT AVBL
SHEBOYGAN      SUNNY     16  -1  47 SW9       30.64F WCI   4
$$

LMZ563-521-522-541>543-281900-
LAKESHORE

STATION/POSITION TIME  TEMP    WIND        PRES    VSBY  WAVE
                       AIR SEA DIR/SP/G                  HT/PER
                 (UTC) (F)     (DEG/KT/KT) (MB)    (MI)  (FT/S)
SHEBOYGAN LKSHOR 1700   14     200/ 10/ 11 1040.2F
KEWAUNEE LKSHORE 1700   14     200/  7/ 10 1036.7F
NORTHPORT PIER   1700   17     270/  1/  7 1036.6F
SISTER BAY LKSHO 1700   26     260/  6/  7   N/A
CHAMBERS ISLAND  1700   11     170/  7/ 14 1036.2F
MENOMINEE LKSHOR 1700   10     160/ 11     1036.9F
$$



USA.gov is the U.S. government's official web portal to all federal, state and local government web resources and services.